Location: Nitra
(0.0000°N, 18.0833°E)
Time: 07:33:28
(UTC+02:00)

ITAMSAT 1 - Visible Passes

Search period start: 08 June 2023 00:00
Search period end: 18 June 2023 00:00
Orbit: 782 x 797 km, 98.8° (Epoch: 07 June)

Date Brightness Start Highest point End Pass type
(mag) Time Alt. Az. Time Alt. Az. Time Alt. Az.
08 Jun 9.7 20:01:07 11° ENE 20:01:07 11° ENE 20:01:49 10° NE visible
08 Jun 9.9 21:41:50 21° NW 21:41:50 21° NW 21:43:43 10° NW visible
09 Jun 9.0 21:11:44 33° NNW 21:11:44 33° NNW 21:14:30 10° NNW visible
10 Jun 8.9 20:41:39 28° NNE 20:41:39 28° NNE 20:44:28 10° N visible
11 Jun 9.5 20:11:34 15° ENE 20:11:34 15° ENE 20:13:19 10° NE visible
11 Jun 10.1 21:52:16 17° NW 21:52:16 17° NW 21:53:43 10° NW visible
12 Jun 9.2 21:22:11 31° NNW 21:22:11 31° NNW 21:24:48 10° NNW visible
13 Jun 8.8 20:52:05 32° NNE 20:52:05 32° NNE 20:55:02 10° N visible
14 Jun 9.2 20:22:01 19° NE 20:22:01 19° NE 20:24:22 10° NNE visible
14 Jun 10.4 22:02:43 14° WNW 22:02:43 14° WNW 22:03:34 10° NW visible
15 Jun 9.5 21:32:38 27° NW 21:32:38 27° NW 21:35:00 10° NNW visible
16 Jun 8.8 21:02:33 35° N 21:02:33 35° N 21:05:31 10° N visible
17 Jun 9.0 20:32:28 24° NE 20:32:28 24° NE 20:35:11 10° NNE visible
17 Jun 10.6 22:13:10 10° WNW 22:13:10 10° WNW 22:13:12 10° WNW visible
